Location: Munkebjergskolens Observatorium
(55.3864°N, 10.3987°E)
Time: 12:48:33
(UTC+02:00)

QB50P2 - Pass Details

Date: 03 April 2023
Orbit: 581 x 596 km, 98.0° (Epoch: 30 May)

Event Time Altitude Azimuth Distance (km) Brightness Sun altitude
Rises 05:14:28 0° 4° (N) 2,842 ? -13.0°
Reaches altitude 10° 05:17:38 10° 338° (NNW) 1,931 ? -12.6°
Maximum altitude 05:19:39 13° 309° (NW) 1,715 ? -12.3°
Enters shadow 05:21:28 11° 283° (WNW) 1,886 ? -12.1°
